User: anonymous   Login
Location: Unspecified
(0.0000°N, 0.0000°E)
Time: 16:59:09
(UTC+02:00)
Language:

CZ-4B DEB - Orbit

View from above orbital plane
View from above orbital plane
View from above satellite
View from above satellite

Ground track
Ground track

The orbit data is extracted from the following two-line orbital elements,

1 33411U 08053D   16243.14431229  .00026125  00000-0  54835-3 0  9994
2 33411  97.4465 275.4795 0002866 297.5770  62.5188 15.45348258431189
Epoch (UTC): 30 August 2016 03:27:48
Eccentricity: 0.0002866
inclination: 97.4465°
perigee height: 428 km
apogee height: 432 km
right ascension of ascending node: 275.4795°
argument of perigee: 297.5770°
revolutions per day: 15.45348258
mean anomaly at epoch: 62.5188°
orbit number at epoch: 43118

The dashed part of the orbit path shows where the satellite is in the earth's shadow,  

DLR